EW6020 Weather Reports


Display with metric or nautical units.
time (UTC)temp
F
wind
direction
speed
MPH
gust
MPH
rain 1hr
in
rain 24hr
in
rain mn
in
humidity
%
barometer
mb
20260506201555 65 167 7.0 11.0 0.00 0.00 0.00 71 1018.4
20260506200054 63 166 10.0 15.0 0.00 0.00 0.00 75 1018.6
20260506194554 63 150 9.0 18.0 0.00 0.00 0.00 74 1018.7
20260506193052 64 179 6.0 14.0 0.00 0.00 0.00 73 1018.9
20260506191553 63 179 3.0 12.0 0.00 0.00 0.00 75 1018.9
20260506190050 62 176 3.0 12.0 0.00 0.00 0.00 77 1018.9
20260506184555 62 179 7.0 12.0 0.00 0.00 0.00 76 1018.7
20260506183045 61 150 7.0 14.0 0.00 0.00 0.00 78 1018.7
20260506181543 61 168 7.0 11.0 0.00 0.00 0.00 80 1018.7
20260506180042 60 172 1.0 8.0 0.00 0.00 0.00 82 1019.0
20260506174539 60 178 2.0 5.0 0.00 0.00 0.00 82 1019.0
20260506173047 59 172 2.0 6.0 0.00 0.00 0.00 84 1018.8
20260506171536 58 179 5.0 10.0 0.00 0.00 0.00 84 1018.7
20260506170032 57 178 5.0 10.0 0.00 0.00 0.00 86 1018.7
20260506164531 57 179 6.0 8.0 0.00 0.00 0.00 87 1018.9
20260506163052 57 176 3.0 6.0 0.00 0.00 0.00 85 1019.0
20260506161530 56 177 0.0 2.0 0.00 0.00 0.00 86 1018.9
20260506160029 56 149 0.0 3.0 0.00 0.00 0.00 87 1018.8
20260506154535 55 179 2.0 9.0 0.00 0.00 0.00 88 1018.6
20260506153029 55 179 7.0 10.0 0.00 0.00 0.00 88 1018.3
20260506151533 54 179 4.0 6.0 0.00 0.00 0.00 90 1018.4
20260506150025 53 163 0.0 4.0 0.00 0.00 0.00 90 1018.8
20260506144523 53 149 0.0 2.0 0.00 0.00 0.00 91 1018.9
20260506143026 53 149 0.0 3.0 0.00 0.00 0.00 91 1018.8
20260506141520 53 150 0.0 1.0 0.00 0.00 0.00 91 1018.4
20260506140025 52 149 0.0 2.0 0.00 0.00 0.00 92 1017.9
20260506134514 0 0.0 0.0 0.00 0.00 0.00 1017.7
20260506133010 0 0.0 0.0 0.00 0.00 0.00 1017.7
20260506131508 0 0.0 0.0 0.00 0.00 0.00 1017.7
20260506130001 0 0.0 0.0 0.00 0.00 0.00 1017.5
20260506124558 0 0.0 0.0 0.00 0.00 0.00 1017.2
20260506123110 53 224 5.0 7.0 0.00 0.00 0.00 91 1017.1
20260506121605 53 179 6.0 8.0 0.00 0.00 0.00 91 1017.1
20260506120048 54 179 3.0 4.0 0.00 0.00 0.00 91 1017.2
20260506114545 54 152 3.0 4.0 0.00 0.00 0.00 91 1017.1
20260506113042 54 153 0.0 1.0 0.00 0.00 0.00 90 1017.0
20260506111542 54 153 0.0 0.0 0.00 0.00 0.00 90 1016.9
20260506110042 54 153 0.0 0.0 0.00 0.00 0.00 90 1016.7
20260506104537 54 153 0.0 0.0 0.00 0.00 0.00 90 1016.5
20260506103035 54 153 0.0 0.0 0.00 0.00 0.00 89 1016.3
20260506101534 54 153 0.0 2.0 0.00 0.00 0.00 90 1016.1
20260506100036 54 153 1.0 2.0 0.00 0.00 0.00 90 1016.0
20260506094530 54 153 0.0 0.0 0.00 0.00 0.00 90 1015.9
20260506093029 54 153 0.0 1.0 0.00 0.00 0.00 89 1015.8
20260506091527 55 153 0.0 0.0 0.00 0.00 0.00 89 1015.8
20260506090027 55 153 0.0 1.0 0.00 0.00 0.00 89 1015.8
20260506084534 55 153 0.0 2.0 0.00 0.00 0.00 89 1015.7
20260506083030 55 153 0.0 2.0 0.00 0.00 0.00 89 1015.6
20260506081522 55 153 2.0 3.0 0.00 0.00 0.00 88 1015.7
20260506073016 56 149 2.0 3.0 0.00 0.00 0.00 87 1015.4
20260506071513 56 179 2.0 5.0 0.00 0.00 0.00 87 1015.2
20260506061508 58 179 0.0 1.0 0.00 0.00 0.00 85 1015.1
20260506044508 58 179 0.0 3.0 0.00 0.00 0.00 85 1014.6
20260506043002 59 180 0.0 2.0 0.00 0.00 0.00 82 1014.4
20260506041502 60 179 2.0 3.0 0.00 0.00 0.00 81 1014.2
20260506040002 60 179 1.0 2.0 0.00 0.00 0.00 81 1013.9
20260506034503 61 179 0.0 1.0 0.00 0.00 0.00 80 1013.8
20260506033000 61 179 0.0 2.0 0.00 0.00 0.00 80 1013.6
20260506031603 62 179 1.0 1.0 0.00 0.00 0.00 78 1013.5
20260506030100 62 179 1.0 2.0 0.00 0.00 0.00 77 1013.3
20260506024608 63 180 2.0 4.0 0.00 0.00 0.00 75 1013.2
20260506023111 64 179 3.0 6.0 0.00 0.00 0.00 73 1013.2
20260506021600 67 179 1.0 3.0 0.00 0.00 0.00 68 1013.0
20260506020058 66 176 3.0 5.0 0.00 0.00 0.00 69 1013.0
20260506014556 67 176 0.0 3.0 0.00 0.00 0.00 67 1013.0
20260506013057 66 178 1.0 4.0 0.00 0.00 0.00 68 1013.1
20260506011554 65 177 1.0 8.0 0.00 0.00 0.00 71 1013.2
20260506010052 64 179 1.0 4.0 0.00 0.00 0.00 72 1013.2
20260506004557 64 145 3.0 5.0 0.00 0.00 0.00 71 1013.2
20260506003052 64 179 3.0 9.0 0.00 0.00 0.00 71 1013.2
20260506001555 65 154 3.0 6.0 0.00 0.00 0.00 69 1013.2
20260506000056 64 178 0.0 9.0 0.00 0.00 0.00 72 1013.3
20260505234547 65 147 1.0 8.0 0.00 0.00 0.00 70 1013.5
20260505233048 65 178 1.0 6.0 0.00 0.00 0.00 70 1013.6
20260505231545 64 178 1.0 9.0 0.00 0.00 0.00 72 1013.7
20260505230108 62 164 3.0 10.0 0.00 0.00 0.00 73 1013.9
20260505224541 63 178 5.0 11.0 0.00 0.00 0.00 74 1014.0
20260505223043 62 178 3.0 9.0 0.00 0.00 0.00 75 1014.2
20260505221545 62 169 3.0 10.0 0.00 0.00 0.00 72 1014.1
20260505220051 64 179 1.0 6.0 0.00 0.00 0.00 71 1014.2
20260505214538 62 178 1.0 6.0 0.00 0.00 0.00 75 1014.4
20260505213037 63 179 2.0 5.0 0.00 0.00 0.00 72 1014.4
20260505211536 61 156 4.0 9.0 0.00 0.00 0.00 74 1014.4
20260505210036 62 177 0.0 3.0 0.00 0.00 0.00 74 1014.4
20260505204531 60 151 1.0 5.0 0.00 0.00 0.00 75 1014.6
20260505203030 60 179 2.0 6.0 0.00 0.00 0.00 78 1014.8